Погода в Малееве

Россия / Смоленская область     54°30′50″N   31°31′15″E
темп.,
°C
ветер,
м/с
пор.,
м/с
влажн.,
%
обл.,
%
осадки,
мм/ч
давл.,
гПа
погр.,
м
27 ноября, сб
сб2700:00+1ююв41098100 0.1 1006397
03:00+2ююв51296100 0.2 1004501
06:00+1юв61394100 0.0 1001561
09:000юв71598100 0.6 998617
12:00+1юв71698100 3.1 996729
15:00+2ююв61498100 6.3 993715
18:00+4ююз51298100 1.4 993471
21:00+4юз71394100 1.8 994741
28 ноября, вс
вс2800:00+2юз71397100 0.1 996809
03:00+2юз71296100 0.1 999829
06:00+1юз61191100 0.1 1000662
09:00+1юз51187100 0.1 1002556
12:00+1ююз5986100 0.0 1004463
15:00+1ююз3885100 0.0 1005408
18:00+1ю2489100 0.0 1006135
21:00+1юв3795100 0.1 1006256
29 ноября, пн
пн2900:00+2вюв3798100 3.5 1005434
03:00+2в5998100 6.5 1002276
06:00+2вюв4898100 0.3 1000236
09:00+3вюв41098100 0.3 998281
12:00+5вюв51298100 0.2 995353
15:00+6вюв51298100 5.2 991381
18:00+6вюв51198100 1.9 987363
21:00+5вюв4998100 3.8 983318
30 ноября, вт
вт3000:00+5ююв3599100 5.3 980127
03:00+5юз71197100 6.9 978540
06:00+2юз81596100 0.4 979606
09:00+1юз81697100 3.4 980675
12:000юз81497100 1.0 981698
15:00−2зсз61096100 3.8 983644
18:00−2зсз71296100 2.9 986976
21:00−4зсз81491100 3.9 989800
1 декабря, ср
ср100:00−4зсз71386100 0.1 992812
03:00−6з5129498 0.1 994514
06:00−5зюз4109590 0.1 995375
09:00−3юз3793100 0.1 995441
12:00−2юз4694100 0.1 996478
15:00−2зсз3694100 0.7 996519
18:00−4зсз379614 0.0 998198
21:00−8з249739 0.1 100065